STARLINK-1506, 45747

Orbit data source: Space-Track

STARLINK-1506, 45747 is a payload satellite owned by SpaceX/Seattle (US) in LEO that was launched on Sat, 13 Jun 2020 UTC via an FALCON 9 launch vehicle from the Air Force Eastern Test Range (AFETR). Payload-class satellites include a variety of spacecraft equipped with specific instruments for various scientific and technological missions. These include communications satellites like Starlink; space stations such as the ISS; scientific satellites like the Hubble; Earth observation satellites from companies like Planet Labs, Umbra, and HawkEye 360; GPS; miniature CubeSats for education and research; and military/defense satellites.

Loading next visibility...
Identifier
45747, 2020-038T
Orbit
LEO
Country
Flag of USUS
Related business
Manufacturer
SpaceX/Seattle
Mission
Partially operational Commercial Communications
Bus & Motor
STARLINK, Unknown motor
Mass
260 kg wet, ~248 kg dry
Launch date (UTC)
2020-06-13 (6 years ago)
Launch vehicle
FALCON 9
Launch site
Air Force Eastern Test Range (AFETR)
Object type
Payload
Rocket body
Debris
Shape & HBR
Box + 1 Pan, 10.1 m
Radar Cross Section
13.562 m², Large (>1 m²)

Expand to show TLE details & history
Last TLE update: 17 hours ago

TLE from 17 hours ago
0 STARLINK-1506
1 45747U 20038T   26170.07643663  .00033656  00000-0  11935-2 0  9995
2 45747  53.0741  92.4553 0002068 189.4273 170.6688 15.28798284332184
Epoch: 2026-06-19T01:50Z
TLE epoch observation values (Epoch: 2026-06-19T01:50:04.124Z)
Latitude
-0°
Longitude
157.62751°
Altitude
481.693 km
Speed
7.625 km/s
True Right ascension
06h 09m 49s
True Declination
0° 00' 00"
Sunlit
Object was in daylight at epoch
Visualization orbit readout
Latitude
Unknown
Longitude
Unknown
Altitude
Unknown
Speed
Unknown
Apparent Right ascension
Unknown
Apparent Declination
Unknown
Sunlit
N/A
Visualization observer readout
Local Sidereal Time
05:15:55
Azimuth
Unknown
Elevation
Unknown
Doppler factor
Unknown
Orbital elements
Apogee altitude
481.092 km
Perigee altitude
478.255 km
Semi-major axis
6,857.811 km
Eccentricity
0.00021
Inclination
53.0741°
RAAN
92.4553°
Arg. of periapsis
189.4273°
True anomaly
170.67264°
Mean anomaly
170.6688°
Eccentric anomaly
170.67072°
Mean motion
3.82177 °/min
Orbital period
94.2 mins
BSTAR
0.0011935
Loading maneuver chart data...
Computing Atmospheric mass density...

Documentation

Showing up to 5 results
|